EW2356 Weather Reports


time (UTC)temp
F
wind
direction
speed
knots
gust
knots
rain 1hr
in
rain 24hr
in
rain mn
in
humidity
%
barometer
mb
20260504204517 80 230 6.1 11.3 0.00 0.01 0.01 46 1001.6
20260504203050 80 231 5.2 10.4 0.00 0.01 0.01 47 1001.6
20260504201546 79 219 7.0 12.2 0.00 0.01 0.01 48 1002.2
20260504200035 78 222 6.1 11.3 0.00 0.01 0.01 52 1002.4
20260504194525 75 233 2.6 6.1 0.01 0.01 0.01 60 1002.4
20260504193024 73 216 5.2 13.0 0.01 0.01 0.01 61 1002.7
20260504191520 70 220 2.6 11.3 0.01 0.01 0.01 64 1002.7
20260504190018 72 225 3.5 8.7 0.01 0.01 0.01 59 1003.4
20260504184518 73 223 3.5 8.7 0.00 0.00 0.00 56 1003.5
20260504183016 72 256 3.5 0.0 0.00 0.00 0.00 56 1003.7
20260504181514 72 261 0.9 3.5 0.00 0.00 0.00 59 1003.9
20260504180056 71 264 0.0 0.9 0.00 0.00 0.00 64 1003.9
20260504174555 71 246 1.7 4.3 0.00 0.00 0.00 59 1004.0
20260504173036 73 238 3.5 9.6 0.00 0.00 0.00 57 1004.2
20260504171542 73 51 0.0 3.5 0.00 0.00 0.00 58 1004.3
20260504081530 63 270 0.0 5.2 0.00 0.00 0.00 61 1006.8
20260504044540 64 239 3.5 7.0 0.00 0.00 0.00 59 1008.0
20260504043033 65 235 0.9 5.2 0.00 0.00 0.00 57 1008.2
20260504041514 66 230 0.9 6.1 0.00 0.00 0.00 57 1008.4
20260504040019 66 231 2.6 4.3 0.00 0.00 0.00 56 1008.5
20260504034613 66 239 0.9 5.2 0.00 0.00 0.00 55 1008.6
20260504033055 67 225 0.9 5.2 0.00 0.00 0.00 54 1008.6
20260504031538 68 237 1.7 8.7 0.00 0.00 0.00 53 1009.2
20260504030042 67 261 3.5 6.1 0.00 0.00 0.00 54 1009.2
20260504024520 67 257 0.9 3.5 0.00 0.00 0.00 55 1008.8
20260504023018 67 243 0.9 3.5 0.00 0.00 0.00 54 1008.7
20260504021507 68 237 0.9 2.6 0.00 0.00 0.00 53 1008.6
20260504020012 68 258 0.9 1.7 0.00 0.00 0.00 52 1008.5
20260504014507 69 230 2.6 4.3 0.00 0.00 0.00 51 1008.4
20260504013004 69 241 0.9 3.5 0.00 0.00 0.00 50 1008.3
20260504011503 70 241 0.9 3.5 0.00 0.00 0.00 48 1008.4
20260504010002 71 234 1.7 4.3 0.00 0.00 0.00 47 1008.2
20260504004502 72 233 1.7 4.3 0.00 0.00 0.00 46 1008.3
20260504003001 73 235 0.9 4.3 0.00 0.00 0.00 44 1008.2
20260504001543 74 227 0.9 4.3 0.00 0.00 0.00 43 1008.2
20260504000046 75 259 3.5 6.1 0.00 0.00 0.00 41 1008.2
20260503234537 76 271 5.2 8.7 0.00 0.00 0.00 39 1008.2
20260503233021 77 258 5.2 10.4 0.00 0.00 0.00 38 1008.4
20260503231502 77 257 6.1 10.4 0.00 0.00 0.00 37 1008.4
20260503230101 77 239 7.8 13.9 0.00 0.00 0.00 36 1008.5
20260503224541 77 254 8.7 13.0 0.00 0.00 0.00 35 1008.7
20260503223041 77 260 7.8 13.9 0.00 0.00 0.00 35 1008.9
20260503221523 78 251 5.2 12.2 0.00 0.00 0.00 34 1008.8
20260503220037 77 260 7.8 15.6 0.00 0.00 0.00 34 1008.9
20260503214558 77 265 8.7 16.5 0.00 0.00 0.00 34 1009.0
20260503213110 77 270 4.3 18.2 0.00 0.00 0.00 34 1009.1
20260503211537 77 248 7.8 20.0 0.00 0.00 0.00 33 1009.4
20260503210038 76 222 7.8 16.5 0.00 0.00 0.00 33 1009.5